Home > Weather > Thane > Past weeks

Flag for India Past Weather in Thane, Maharashtra, India — Yesterday and Last 2 Weeks

Now
77 °F

Rain. Mostly cloudy.


Feels Like: 78 °F
Forecast: 79 / 85 °F
Wind: 6 mph from South

Location: Mumbai / Santacruz

Current Time: Jun 26, 2016 at 4:48:27 AM

Latest Report: Jun 26, 2016 at 4:30 AM


Visibility: 1 mi

Pressure: 29.68 "Hg

Humidity: 100%

Dew Point: 77 °F

Location of ThaneLocation

Past Weather in Thane — Graph

°F

Thane Temperature Yesterday

Maximum temperature yesterday: 82 °F (at 8:00 AM)
Minimum temperature yesterday: 77 °F (at 2:00 AM)
Average temperature yesterday: 80 °F

High & Low Weather Summary for the Past Weeks

 TemperatureHumidityPressure
High95 °F (Jun 13, 2:30 PM)100% (Jun 21, 4:00 AM)29.80 "Hg (Jun 21, 4:00 AM)
Low77 °F (Jun 19, 8:30 PM)59% (Jun 13, 1:00 PM)29.53 "Hg (Jun 20, 4:30 PM)
Average85 °F79%29.67 "Hg
* Reported Jun 11 3:30 AM — Jun 26 3:30 AM, Thane, Weather by CustomWeather, © 2016

Note: Actual official high and low records may vary slightly from our data, if they occured in-between our weather recording intervals... More about our weather records

Advertising

Thane Weather History for the Previous 24 Hours

Scroll right to see more
 ConditionsComfort  
Time TempWeatherWind HumidityBarometerVisibility
3:30 AM
Sun, Jun 26
79 °FRain. Mostly cloudy.10 mph89%29.65 "Hg1 mi
3:00 AM79 °FMostly cloudy.7 mph94%29.65 "Hg2 mi
2:30 AM79 °FMostly cloudy.7 mph94%29.65 "Hg2 mi
2:00 AM79 °FMostly cloudy.7 mph94%29.68 "Hg2 mi
1:30 AM79 °FMostly cloudy.5 mph94%29.68 "Hg2 mi
1:00 AM79 °FMostly cloudy.3 mph94%29.71 "Hg2 mi
12:30 AM79 °FMostly cloudy.7 mph94%29.71 "Hg2 mi
12:00 AM79 °FMostly cloudy.5 mph94%29.74 "Hg1 mi
11:30 PM
Sat, Jun 25
79 °FMostly cloudy.5 mph94%29.74 "Hg1 mi
11:00 PM81 °FMostly cloudy.6 mph89%29.74 "Hg1 mi
10:30 PM81 °FDrizzle. Mostly cloudy.8 mph89%29.74 "Hg1 mi
10:00 PM81 °FLight rain. Mostly cloudy.6 mph89%29.74 "Hg1 mi
9:30 PM81 °FLight rain. Mostly cloudy.8 mph89%29.71 "Hg1 mi
9:00 PM81 °FLight rain. Mostly cloudy.10 mph89%29.71 "Hg1 mi
8:30 PM81 °FDrizzle. Mostly cloudy.9 mph89%29.71 "Hg1 mi
8:00 PM81 °FDrizzle. Mostly cloudy.12 mph89%29.68 "Hg1 mi
7:30 PM81 °FDrizzle. More clouds than sun.12 mph89%29.68 "Hg1 mi
7:00 PM81 °FDrizzle. More clouds than sun.9 mph89%29.68 "Hg1 mi
6:30 PM81 °FMore clouds than sun.12 mph89%29.68 "Hg1 mi
6:00 PM81 °FDrizzle. More clouds than sun.8 mph89%29.68 "Hg1 mi
5:30 PM81 °FRain. More clouds than sun.12 mph94%29.65 "Hg1 mi
5:00 PM81 °FLight rain. More clouds than sun.9 mph94%29.65 "Hg1 mi
4:30 PM81 °FRain. More clouds than sun.9 mph89%29.65 "Hg1 mi
4:00 PM81 °FDrizzle. More clouds than sun.8 mph94%29.65 "Hg1 mi
3:30 PM81 °FLight rain. More clouds than sun.8 mph94%29.65 "Hg1 mi
3:00 PM79 °FLight rain. More clouds than sun.14 mph94%29.68 "Hg1 mi
2:30 PM81 °FLight rain. More clouds than sun.12 mph94%29.68 "Hg1 mi
2:00 PM79 °FRain. More clouds than sun.12 mph94%29.68 "Hg1 mi
1:30 PM79 °FRain. More clouds than sun.14 mph94%29.68 "Hg1 mi
1:00 PM81 °FRain. More clouds than sun.12 mph89%29.68 "Hg1 mi
12:30 PM79 °FHeavy rain. More clouds than sun.12 mph94%29.68 "Hg1 mi
11:30 AM81 °FLight rain. More clouds than sun.9 mph89%29.68 "Hg1 mi
11:00 AM81 °FLight rain. More clouds than sun.8 mph94%29.68 "Hg1 mi
9:30 AM81 °FMore clouds than sun.8 mph89%29.68 "Hg1 mi
9:00 AM82 °FBroken clouds.8 mph84%29.68 "Hg1 mi
8:30 AM82 °FBroken clouds.8 mph84%29.68 "Hg1 mi
8:00 AM82 °FScattered showers. Broken clouds.10 mph84%29.68 "Hg1 mi
7:30 AM81 °FScattered showers. Broken clouds.12 mph89%29.68 "Hg1 mi
7:00 AM81 °FBroken clouds.10 mph89%29.68 "Hg1 mi
6:30 AM81 °FDrizzle. Mostly cloudy.10 mph89%29.65 "Hg1 mi
6:00 AM81 °FDrizzle. Mostly cloudy.13 mph89%29.62 "Hg1 mi
5:30 AM79 °FDrizzle. Mostly cloudy.7 mph94%29.62 "Hg1 mi
5:00 AM79 °FHeavy rain. Mostly cloudy.7 mph94%29.62 "Hg1 mi
4:30 AM79 °FDrizzle. Mostly cloudy.8 mph94%29.62 "Hg1 mi
4:00 AM79 °FLight rain. Mostly cloudy.8 mph94%29.62 "Hg1 mi
Weather by CustomWeather, © 2016

See weather overviewHow to use our weather pages